User: anonymous   Login
Location: Dumpton Point
(51.3500°N, 1.4433°E)
Time: 15:36:24
(UTC+00:00)
Language:

Transit 2A - Orbit

View from above orbital plane
View from above orbital plane
View from above satellite
View from above satellite

Ground track
Ground track

The orbit data is extracted from the following two-line orbital elements,

1 00045U 60007A   21112.83073348  .00000000  00000-0  27056-4 0  9999
2 00045  66.6937 285.5894 0247845  90.4107 272.5395 14.33716752110183
Epoch (UTC): 22 April 2021 19:56:15
Eccentricity: 0.0247845
inclination: 66.6937°
perigee height: 602 km
apogee height: 957 km
right ascension of ascending node: 285.5894°
argument of perigee: 90.4107°
revolutions per day: 14.33716752
mean anomaly at epoch: 272.5395°
orbit number at epoch: 11018

The dashed part of the orbit path shows where the satellite is in the earth's shadow,  

DLR